Regional Weather Roundup
Issued by NWS Sterling, VA

Home | Current Version | Previous Version | Text Only | Print | Product List | Glossary On
Versions: 1 2 3 4 5 6 7 8 9 10 11 12 13 14 15 16 17 18 19 20 21 22 23 24 25 26 27 28 29 30 31 32 33 34 35 36 37 38 39 40 41 42 43 44 45 46 47 48 49
000
ASUS41 KLWX 250110
RWRLWX

REGIONAL WEATHER ROUNDUP
NATIONAL WEATHER SERVICE BALTIMORE MD/WASHINGTON DC
800 PM EST WED DEC 24 2014

Note: "FAIR" indicates few or no clouds below 12,000 feet
with no significant weather and/or obstructions to visibility.
 TC=TEMPERATURE CELSIUS

 * =Non NWS site. Station does not report precipitation (e.g. rain,
    snow, etc.), thunder, or fog.

DCZ001-MDZ009-015-VAZ040>042-051-053>054-250200-
WASHINGTON METRO

CITY           SKY/WX    TMP DP  RH WIND       PRES   REMARKS
WASHINGTON NAT CLOUDY    52  48  87 S6        29.61F
DULLES         FOG       50  50 100 S7        29.58F VSB 1/4
ANDREWS AFB    CLOUDY    54  54 100 S7        29.61F
FT BELVOIR     CLOUDY    49  49  97 SE1       29.61F FOG
QUANTICO       FOG       46  44  93 S6        29.62S VSB 3/4
COLLEGE PARK*  CLOUDY    52  52 100 CALM      29.61F
LEESBURG*      FOG       50  50 100 S6        29.59S VSB 1/2
MANASSAS*      CLOUDY    54  52  94 S6        29.60S
GAITHERSBURG*  CLOUDY    50  48  93 SE7       29.62F

$$

MDZ006>007-011-014-250200-
BALTIMORE METRO

CITY           SKY/WX    TMP DP  RH WIND       PRES   REMARKS
BWI AIRPORT    CLOUDY    53  52  96 S3        29.60F FOG
MD SCIENCE CTR   N/A     49  49 100 MISG      29.61F
MARTIN STATE   FOG       52  52 100 CALM      29.63F VSB 1/2
ANNAPOLIS      FOG       45  44  97 SE6       29.61F VSB 1/4
FORT MEADE*    CLOUDY    52  50  93 S3        29.63F

$$

MDZ012-015-019>023-250200-
MARYLAND EASTERN SHORE

CITY           SKY/WX    TMP DP  RH WIND       PRES   REMARKS
OCEAN CITY     CLOUDY    58  58 100 SW14G20   29.69R
SALISBURY      CLOUDY    66  61  84 S12       29.66R
BAY BRIDGE AP* FOG       52  52 100 SE6       29.62F VSB 1
CAMBRIDGE*     CLOUDY    61  59  94 S9G16     29.65F
EASTON*        FOG       59  59 100 SW6       29.66F VSB 1/2

$$

MDZ017>025-250200-
SOUTHERN MARYLAND

CITY           SKY/WX    TMP DP  RH WIND       PRES   REMARKS
PATUXENT RIVER FOG       52  51  97 SE8       29.61F VSB 1/2
ST INIGOES     CLOUDY    59  56  89 SE7       29.63F
LEONARDTOWN*   CLOUDY    54  52  94 CALM      29.64F VSB 1/2

$$

MDZ003>005-250200-
NORTH CENTRAL MARYLAND

CITY           SKY/WX    TMP DP  RH WIND       PRES   REMARKS
FREDERICK*     FOG       50  45  81 CALM      29.60F VSB 1/2
HAGERSTOWN APT CLOUDY    48  47  96 CALM      29.54F FOG
WESTMINSTER*   CLOUDY    52  50  93 S8        29.57F FOG

$$

MDZ501>502-250200-
WESTERN MARYLAND

CITY           SKY/WX    TMP DP  RH WIND       PRES   REMARKS
OAKLAND*       CLOUDY    50 N/A N/A SE12      29.46F
CUMBERLAND*    CLOUDY    41  41 100 CALM      29.57F VSB 1/4

$$

VAZ025>031-250200-
SHENANDOAH VALLEY

CITY           SKY/WX    TMP DP  RH WIND       PRES   REMARKS
WINCHESTER*    FOG       46  43  87 NW3       29.54F VSB 1
FRONT ROYAL*   CLOUDY    45  45 100 SE5       29.53S
LURAY*         CLOUDY    50  50 100 CALM      29.53F
NEW MARKET*    CLOUDY    48  47  98 N3        29.53F
STAUNTON*      CLOUDY    53  51  94 CALM      29.57F
WAYNESBORO*    MOCLDY    56  54  92 S10G16    29.56F

$$

WVZ021-048>050-054>055-250200-
EASTERN WEST VIRGINIA PANHANDLE

CITY           SKY/WX    TMP DP  RH WIND       PRES   REMARKS
MARTINSBURG    FOG       46  43  89 W5        29.55F VSB 1/4
PETERSBURG*    CLOUDY    41  41 100 CALM      29.50F FOG

$$

VAZ036>039-050-250200-
CENTRAL FOOTHILLS

CITY           SKY/WX    TMP DP  RH WIND       PRES   REMARKS
CHARLOTTESVILL CLOUDY    51  50  96 S10       29.59F FOG
CULPEPER*      CLOUDY    52  52 100 SW3       29.60S FOG
ORANGE*        RAIN      52  52 100 S8        29.62S
GORDONSVILLE*  CLOUDY    50  50 100 SW7       29.60F FOG
WARRENTON*     CLOUDY    53  53 100 S6        29.59F FOG

$$

VAZ055>057-250200-
NORTH AND CENTRAL PIEDMONT

CITY           SKY/WX    TMP DP  RH WIND       PRES   REMARKS
FREDERICKSBRG* CLOUDY    54  54 100 S7        29.60F FOG
STAFFORD*      CLOUDY    52  32  46 S5        29.64F FOG

$$

NCZ024-NYZ072-PAZ021-071-VAZ022-071-250200-
OTHER REGIONAL OBSERVATIONS

CITY           SKY/WX    TMP DP  RH WIND       PRES   REMARKS
NEW YORK CITY  CLOUDY    54  54 100 CALM      29.63F FOG
PHILADELPHIA   CLOUDY    60  58  92 S9        29.61F
PITTSBURGH     CLOUDY    56  52  86 S7        29.34F
ROANOKE        CLOUDY    49  48  97 VRB3      29.64R
RICHMOND       LGT RAIN  63  61  93 S13       29.64S
RALEIGH        CLOUDY    64  60  87 SW10      29.70R

$$

ANZ530>537-250200-
MARINE OBSERVATIONS

STATION/POSITION TIME  TEMP    WIND        PRES
                       AIR SEA DIR/SP/G
                 (UTC) (F)     (DEG/KT/KT) (MB)
THOMAS PT LIGHT  0100   50 41  160/ 12/ 13 1003.9F
BALT KEY BRIDGE  0100   51     130/  3/  4 1002.6F
COVE POINT       0100   53     180/ 13/ 13 1002.5F
LEWISETTA        0100   62 42  200/ 11/ 14 1003.4R
SOLOMONS ISLAND  0100      44                N/A
PINEY POINT      0100          130/  6/  8   N/A

$$



USA.gov is the U.S. government's official web portal to all federal, state and local government web resources and services.